Simultaneous Nadir Overpasses (SNOs) Predictions

Prediction of SNOs between LANDSAT-8 and NPP Satellite Orbit:

Table of predicted SNOs for the next 14.0 days since TLE Epoch: 9/19/2020
Index Date (LANDSAT-8) Time (LANDSAT-8) Lat,Lon (LANDSAT-8) SZA (LANDSAT-8 ) Date (NPP) Time (NPP) Lat,Lon (NPP) SZA (NPP ) Distance(km) Time Diff (sec)
1 09/19/2020 06:58:40 70.06, 71.81 68.70 09/19/2020 06:57:58 70.08, 71.87 68.72 3.11 42
2 09/19/2020 07:48:09 -70.01,-120.63 111.35 09/19/2020 07:48:40 -69.98,-120.67 111.37 2.93 31
3 09/21/2020 22:25:31 -70.82, 21.16 109.53 09/21/2020 22:24:23 -70.87, 19.07 109.45 76.56 68
4 09/21/2020 23:15:10 70.06,-172.32 69.73 09/21/2020 23:14:53 70.03,-172.28 69.71 3.11 17
5 09/22/2020 00:04:40 -69.95, -4.84 110.37 09/22/2020 00:05:35 -69.93, -4.82 110.39 2.14 55
6 09/24/2020 14:42:12 -70.16, 136.06 109.15 09/24/2020 14:41:04 -70.14, 136.01 109.16 2.65 68
7 09/24/2020 15:31:39 70.05, -56.45 70.76 09/24/2020 15:31:48 70.04, -56.52 70.75 2.82 9
8 09/24/2020 16:21:14 -69.67, 110.65 109.60 09/24/2020 16:22:25 -69.67, 111.34 109.61 26.61 71
9 09/27/2020 06:58:43 -70.10,-108.15 108.17 09/27/2020 06:57:59 -70.09,-108.15 108.17 0.24 44
10 09/27/2020 07:48:10 69.98, 59.33 71.74 09/27/2020 07:48:43 69.99, 59.32 71.75 1.24 33
11 09/29/2020 22:25:33 70.73,-158.97 73.50 09/29/2020 22:24:24 70.79,-160.79 73.57 67.20 69
12 09/29/2020 23:15:14 -70.03, 7.63 107.19 09/29/2020 23:14:54 -70.05, 7.69 107.17 3.11 20
13 09/30/2020 00:04:40 69.97, 175.19 72.76 09/30/2020 00:05:38 69.95, 175.15 72.74 2.69 58
14 10/02/2020 14:42:14 70.11, -44.00 73.92 10/02/2020 14:41:07 70.11, -43.95 73.92 1.79 67
15 10/02/2020 15:31:44 -70.02, 123.49 106.17 10/02/2020 15:31:49 -70.01, 123.53 106.18 1.76 5
16 10/02/2020 16:21:17 69.57, -69.48 73.40 10/02/2020 16:22:27 69.59, -68.54 73.42 36.53 70
